| time (UTC) | temp C | wind direction | speed KPH | gust KPH | rain 1hr cm | rain 24hr cm | rain mn cm | humidity % | barometer mb |
| 20260507051002 | 5 | 283 | 0.0 | 4.8 | 0.00 | 1.65 | 0.00 | 92 | 1013.6 |
| 20260507050502 | 5 | 269 | 1.6 | 4.8 | 0.00 | 1.68 | 0.00 | 93 | 1013.6 |
| 20260507050002 | 5 | 284 | 1.6 | 3.2 | 0.00 | 1.70 | 0.00 | 93 | 1013.6 |
| 20260507045502 | 5 | 293 | 0.0 | 4.8 | 0.00 | 1.73 | 0.00 | 94 | 1013.6 |
| 20260507045002 | 5 | 303 | 0.0 | 4.8 | 0.00 | 1.73 | 0.00 | 94 | 1013.6 |
| 20260507044502 | 5 | 257 | 0.0 | 4.8 | 0.00 | 1.75 | 0.00 | 94 | 1013.6 |
| 20260507044003 | 5 | 293 | 1.6 | 4.8 | 0.00 | 1.78 | 0.00 | 94 | 1013.6 |
| 20260507043502 | 5 | 293 | 1.6 | 4.8 | 0.00 | 1.78 | 0.00 | 95 | 1013.5 |
| 20260507043002 | 5 | 278 | 1.6 | 4.8 | 0.00 | 1.78 | 0.00 | 95 | 1013.5 |
| 20260507042503 | 5 | 280 | 3.2 | 8.0 | 0.00 | 1.78 | 0.00 | 96 | 1013.5 |
| 20260507042003 | 5 | 295 | 1.6 | 4.8 | 0.00 | 1.80 | 0.00 | 96 | 1013.5 |
| 20260507041502 | 5 | 272 | 1.6 | 4.8 | 0.00 | 1.80 | 0.00 | 96 | 1013.4 |
| 20260507040502 | 5 | 282 | 1.6 | 3.2 | 0.00 | 1.85 | 0.00 | 97 | 1013.4 |
| 20260507040002 | 5 | 255 | 1.6 | 4.8 | 0.00 | 1.85 | 0.00 | 97 | 1013.4 |
| 20260507035502 | 5 | 279 | 1.6 | 4.8 | 0.00 | 1.85 | 1.85 | 97 | 1013.4 |
| 20260507035003 | 5 | 293 | 1.6 | 4.8 | 0.00 | 1.88 | 1.85 | 97 | 1013.4 |
| 20260507034502 | 5 | 273 | 0.0 | 3.2 | 0.00 | 1.88 | 1.85 | 97 | 1013.4 |
| 20260507034003 | 5 | 249 | 1.6 | 4.8 | 0.00 | 1.88 | 1.85 | 97 | 1013.4 |
| 20260507033002 | 5 | 259 | 0.0 | 4.8 | 0.00 | 1.91 | 1.85 | 97 | 1013.2 |
| 20260507032502 | 5 | 245 | 0.0 | 4.8 | 0.00 | 1.91 | 1.85 | 97 | 1013.2 |
| 20260507032002 | 5 | 221 | 0.0 | 1.6 | 0.00 | 1.91 | 1.85 | 97 | 1013.2 |
| 20260507031503 | 5 | 246 | 0.0 | 3.2 | 0.00 | 1.91 | 1.85 | 97 | 1013.4 |
| 20260507031003 | 5 | 265 | 0.0 | 1.6 | 0.00 | 1.91 | 1.85 | 97 | 1013.3 |
| 20260507025502 | 5 | 99 | 0.0 | 1.6 | 0.00 | 1.91 | 1.85 | 96 | 1013.2 |
| 20260507025002 | 5 | 294 | 0.0 | 4.8 | 0.00 | 1.91 | 1.85 | 97 | 1013.1 |
| 20260507024503 | 5 | 242 | 1.6 | 4.8 | 0.00 | 1.91 | 1.85 | 97 | 1013.2 |
| 20260507024003 | 5 | 278 | 1.6 | 4.8 | 0.00 | 1.91 | 1.85 | 96 | 1013.1 |
| 20260507023503 | 5 | 291 | 0.0 | 1.6 | 0.00 | 1.93 | 1.85 | 96 | 1013.0 |
| 20260507022503 | 5 | 261 | 1.6 | 4.8 | 0.00 | 1.93 | 1.85 | 96 | 1013.2 |
| 20260507022002 | 5 | 273 | 0.0 | 4.8 | 0.00 | 1.93 | 1.85 | 96 | 1013.3 |
| 20260507021003 | 5 | 221 | 0.0 | 3.2 | 0.00 | 1.96 | 1.85 | 96 | 1013.3 |
| 20260507020502 | 5 | 277 | 0.0 | 3.2 | 0.00 | 1.96 | 1.85 | 96 | 1013.2 |
| 20260507020003 | 5 | 243 | 0.0 | 4.8 | 0.00 | 1.98 | 1.85 | 96 | 1013.3 |
| 20260507015502 | 5 | 266 | 1.6 | 3.2 | 0.03 | 1.98 | 1.85 | 96 | 1013.2 |
| 20260507014503 | 5 | 255 | 0.0 | 1.6 | 0.03 | 2.01 | 1.85 | 95 | 1013.1 |
| 20260507014002 | 5 | 273 | 0.0 | 1.6 | 0.03 | 2.03 | 1.85 | 95 | 1013.1 |
| 20260507013503 | 5 | 258 | 1.6 | 4.8 | 0.05 | 2.03 | 1.85 | 95 | 1013.3 |
| 20260507013002 | 5 | 273 | 1.6 | 4.8 | 0.05 | 2.03 | 1.85 | 95 | 1013.3 |
| 20260507012002 | 5 | 282 | 1.6 | 4.8 | 0.05 | 2.03 | 1.85 | 95 | 1013.2 |
| 20260507011503 | 5 | 282 | 4.8 | 11.3 | 0.05 | 2.03 | 1.85 | 94 | 1013.1 |
| 20260507011003 | 5 | 295 | 4.8 | 11.3 | 0.05 | 2.03 | 1.85 | 94 | 1013.1 |
| 20260507010502 | 5 | 316 | 3.2 | 4.8 | 0.05 | 2.03 | 1.85 | 94 | 1013.0 |
| 20260507010003 | 5 | 312 | 1.6 | 4.8 | 0.05 | 2.03 | 1.85 | 94 | 1012.9 |
| 20260507005503 | 6 | 318 | 1.6 | 4.8 | 0.03 | 2.01 | 1.83 | 93 | 1012.9 |
| 20260507004002 | 6 | 322 | 3.2 | 9.7 | 0.03 | 2.03 | 1.83 | 93 | 1012.6 |
| 20260507003503 | 7 | 299 | 4.8 | 12.9 | 0.00 | 2.01 | 1.80 | 93 | 1012.5 |
| 20260507003002 | 7 | 293 | 4.8 | 8.0 | 0.00 | 2.01 | 1.80 | 93 | 1012.5 |
| 20260507002503 | 7 | 312 | 4.8 | 4.8 | 0.00 | 2.03 | 1.80 | 93 | 1012.4 |
| 20260507002003 | 7 | 326 | 3.2 | 4.8 | 0.00 | 2.03 | 1.80 | 92 | 1012.2 |
| 20260507001502 | 7 | 325 | 4.8 | 8.0 | 0.00 | 2.03 | 1.80 | 92 | 1012.2 |
| 20260507001003 | 7 | 319 | 3.2 | 4.8 | 0.00 | 2.03 | 1.80 | 92 | 1012.2 |
| 20260507000503 | 7 | 329 | 3.2 | 9.7 | 0.00 | 2.06 | 1.80 | 91 | 1012.1 |
| 20260506235502 | 8 | 330 | 3.2 | 4.8 | 0.00 | 2.06 | 1.80 | 90 | 1011.9 |
| 20260506235003 | 8 | 318 | 1.6 | 3.2 | 0.00 | 2.06 | 1.80 | 90 | 1011.8 |
| 20260506234503 | 8 | 291 | 1.6 | 3.2 | 0.00 | 2.06 | 1.80 | 89 | 1011.7 |
| 20260506233503 | 8 | 219 | 0.0 | 1.6 | 0.00 | 2.08 | 1.80 | 88 | 1011.6 |
| 20260506233003 | 8 | 174 | 0.0 | 0.0 | 0.00 | 2.11 | 1.80 | 88 | 1011.5 |
| 20260506232003 | 8 | 172 | 0.0 | 0.0 | 0.00 | 2.11 | 1.80 | 89 | 1011.4 |
| 20260506231503 | 8 | 172 | 0.0 | 0.0 | 0.00 | 2.13 | 1.80 | 88 | 1011.4 |
| 20260506231003 | 8 | 172 | 0.0 | 1.6 | 0.00 | 2.13 | 1.80 | 88 | 1011.4 |
| 20260506230503 | 8 | 124 | 0.0 | 0.0 | 0.00 | 2.13 | 1.80 | 88 | 1011.3 |
| 20260506230003 | 8 | 124 | 0.0 | 0.0 | 0.00 | 2.16 | 1.80 | 87 | 1011.3 |
| 20260506225503 | 8 | 124 | 0.0 | 1.6 | 0.00 | 2.16 | 1.80 | 87 | 1011.2 |
| 20260506225003 | 8 | 124 | 0.0 | 1.6 | 0.00 | 2.18 | 1.80 | 87 | 1011.0 |
| 20260506224503 | 8 | 134 | 0.0 | 1.6 | 0.00 | 2.21 | 1.80 | 87 | 1010.9 |
| 20260506224003 | 8 | 128 | 0.0 | 1.6 | 0.00 | 2.24 | 1.80 | 87 | 1011.0 |
| 20260506223503 | 8 | 136 | 0.0 | 0.0 | 0.00 | 2.24 | 1.80 | 87 | 1010.9 |
| 20260506223003 | 8 | 136 | 0.0 | 0.0 | 0.00 | 2.24 | 1.80 | 87 | 1010.9 |
| 20260506222503 | 8 | 136 | 0.0 | 1.6 | 0.00 | 2.24 | 1.80 | 87 | 1011.0 |
| 20260506222003 | 8 | 135 | 0.0 | 0.0 | 0.00 | 2.24 | 1.80 | 86 | 1010.9 |
| 20260506221503 | 8 | 135 | 0.0 | 0.0 | 0.00 | 2.24 | 1.80 | 86 | 1011.1 |
| 20260506220503 | 8 | 107 | 0.0 | 1.6 | 0.00 | 2.24 | 1.80 | 85 | 1010.7 |
| 20260506215503 | 8 | 89 | 1.6 | 4.8 | 0.00 | 2.24 | 1.80 | 84 | 1010.7 |
| 20260506215004 | 8 | 172 | 0.0 | 1.6 | 0.00 | 2.24 | 1.80 | 84 | 1010.9 |
| 20260506214003 | 8 | 238 | 0.0 | 0.0 | 0.00 | 2.24 | 1.80 | 83 | 1011.1 |
| 20260506213503 | 8 | 240 | 0.0 | 1.6 | 0.00 | 2.24 | 1.80 | 83 | 1011.0 |
| 20260506213004 | 8 | 293 | 0.0 | 1.6 | 0.00 | 2.24 | 1.80 | 84 | 1011.0 |
| 20260506212503 | 8 | 293 | 0.0 | 1.6 | 0.00 | 2.24 | 1.80 | 85 | 1010.9 |
| 20260506212003 | 8 | 295 | 0.0 | 1.6 | 0.00 | 2.24 | 1.80 | 84 | 1010.9 |
| 20260506211503 | 8 | 296 | 1.6 | 1.6 | 0.00 | 2.24 | 1.80 | 84 | 1010.9 |
| 20260506211003 | 8 | 33 | 1.6 | 1.6 | 0.00 | 2.24 | 1.80 | 84 | 1010.9 |
| 20260506210503 | 8 | 31 | 1.6 | 3.2 | 0.00 | 2.24 | 1.80 | 84 | 1010.9 |
| 20260506210003 | 8 | 79 | 0.0 | 3.2 | 0.00 | 2.24 | 1.80 | 86 | 1010.9 |
| 20260506205503 | 7 | 123 | 1.6 | 3.2 | 0.00 | 2.24 | 1.80 | 86 | 1010.7 |
| 20260506205003 | 7 | 120 | 1.6 | 3.2 | 0.00 | 2.24 | 1.80 | 86 | 1010.7 |
| 20260506204504 | 7 | 96 | 0.0 | 1.6 | 0.00 | 2.24 | 1.80 | 86 | 1010.8 |
| 20260506203504 | 7 | 79 | 1.6 | 3.2 | 0.00 | 2.24 | 1.80 | 86 | 1010.7 |
| 20260506203003 | 7 | 74 | 1.6 | 3.2 | 0.00 | 2.24 | 1.80 | 86 | 1010.7 |
| 20260506202503 | 7 | 75 | 1.6 | 3.2 | 0.00 | 2.24 | 1.80 | 86 | 1010.7 |
| 20260506202003 | 7 | 37 | 3.2 | 4.8 | 0.00 | 2.24 | 1.80 | 86 | 1010.7 |
| 20260506201503 | 7 | 316 | 1.6 | 4.8 | 0.00 | 2.24 | 1.80 | 86 | 1010.9 |
| 20260506200503 | 7 | 27 | 0.0 | 4.8 | 0.00 | 2.24 | 1.80 | 86 | 1010.9 |
| 20260506200004 | 7 | 347 | 1.6 | 4.8 | 0.00 | 2.24 | 1.80 | 87 | 1010.9 |
| 20260506195004 | 7 | 306 | 4.8 | 4.8 | 0.00 | 2.24 | 1.80 | 87 | 1010.7 |
| 20260506194503 | 7 | 16 | 4.8 | 4.8 | 0.00 | 2.24 | 1.80 | 86 | 1010.7 |
| 20260506194003 | 7 | 294 | 3.2 | 8.0 | 0.00 | 2.24 | 1.80 | 86 | 1010.8 |
| 20260506193504 | 7 | 18 | 3.2 | 4.8 | 0.00 | 2.24 | 1.80 | 87 | 1010.7 |
| 20260506193003 | 7 | 297 | 3.2 | 8.0 | 0.00 | 2.24 | 1.80 | 87 | 1010.7 |
| 20260506192503 | 7 | 341 | 3.2 | 8.0 | 0.00 | 2.24 | 1.80 | 87 | 1010.6 |
| 20260506191503 | 7 | 18 | 4.8 | 9.7 | 0.00 | 2.24 | 1.80 | 88 | 1010.8 |
| 20260506191003 | 7 | 334 | 4.8 | 9.7 | 0.00 | 2.24 | 1.80 | 87 | 1010.8 |
| 20260506190503 | 7 | 323 | 4.8 | 8.0 | 0.00 | 2.24 | 1.80 | 87 | 1010.8 |
| 20260506190004 | 7 | 338 | 4.8 | 11.3 | 0.00 | 2.24 | 1.80 | 87 | 1010.8 |
| 20260506185503 | 7 | 358 | 3.2 | 9.7 | 0.00 | 2.24 | 1.80 | 89 | 1010.8 |
| 20260506185003 | 7 | 305 | 3.2 | 8.0 | 0.00 | 2.24 | 1.80 | 90 | 1010.7 |
| 20260506184503 | 7 | 355 | 4.8 | 8.0 | 0.00 | 2.24 | 1.80 | 89 | 1010.6 |
| 20260506184004 | 7 | 330 | 8.0 | 9.7 | 0.00 | 2.24 | 1.80 | 89 | 1010.7 |
| 20260506183503 | 7 | 5 | 4.8 | 8.0 | 0.00 | 2.24 | 1.80 | 91 | 1010.7 |
| 20260506183003 | 6 | 332 | 6.4 | 9.7 | 0.00 | 2.24 | 1.80 | 91 | 1010.6 |
| 20260506182503 | 6 | 332 | 6.4 | 11.3 | 0.00 | 2.24 | 1.80 | 92 | 1010.7 |
| 20260506182003 | 6 | 11 | 8.0 | 14.5 | 0.00 | 2.24 | 1.80 | 92 | 1011.0 |
| 20260506181503 | 6 | 0 | 6.4 | 12.9 | 0.00 | 2.24 | 1.80 | 92 | 1010.8 |
| 20260506181003 | 6 | 7 | 8.0 | 11.3 | 0.00 | 2.24 | 1.80 | 92 | 1011.1 |
| 20260506180503 | 6 | 318 | 4.8 | 14.5 | 0.00 | 2.24 | 1.80 | 92 | 1011.0 |
| 20260506180004 | 6 | 325 | 8.0 | 11.3 | 0.00 | 2.24 | 1.80 | 93 | 1010.8 |
| 20260506175503 | 6 | 341 | 8.0 | 12.9 | 0.00 | 2.24 | 1.80 | 93 | 1010.8 |
| 20260506175004 | 6 | 323 | 8.0 | 12.9 | 0.00 | 2.24 | 1.80 | 93 | 1010.7 |
| 20260506174503 | 6 | 330 | 6.4 | 11.3 | 0.00 | 2.24 | 1.80 | 94 | 1010.5 |
| 20260506174003 | 6 | 324 | 9.7 | 12.9 | 0.00 | 2.24 | 1.80 | 93 | 1010.5 |
| 20260506173503 | 6 | 19 | 4.8 | 11.3 | 0.00 | 2.24 | 1.80 | 94 | 1010.4 |
| 20260506172503 | 6 | 14 | 4.8 | 8.0 | 0.00 | 2.24 | 1.80 | 95 | 1010.2 |
| 20260506172003 | 6 | 338 | 4.8 | 9.7 | 0.00 | 2.24 | 1.80 | 94 | 1010.1 |
| 20260506171503 | 6 | 357 | 6.4 | 12.9 | 0.00 | 2.24 | 1.80 | 94 | 1010.1 |
| 20260506170503 | 6 | 1 | 8.0 | 9.7 | 0.00 | 2.24 | 1.80 | 94 | 1010.2 |
| 20260506170003 | 6 | 324 | 4.8 | 14.5 | 0.00 | 2.24 | 1.80 | 95 | 1010.0 |
| 20260506165503 | 6 | 2 | 9.7 | 16.1 | 0.00 | 2.24 | 1.80 | 94 | 1010.0 |
| 20260506165003 | 6 | 358 | 8.0 | 12.9 | 0.00 | 2.24 | 1.80 | 95 | 1010.2 |
| 20260506164003 | 6 | 333 | 6.4 | 12.9 | 0.00 | 2.24 | 1.80 | 95 | 1010.0 |
| 20260506163503 | 6 | 13 | 9.7 | 14.5 | 0.00 | 2.24 | 1.80 | 95 | 1009.9 |
| 20260506163004 | 6 | 50 | 6.4 | 14.5 | 0.00 | 2.24 | 1.80 | 95 | 1009.9 |
| 20260506162503 | 6 | 0 | 4.8 | 9.7 | 0.00 | 2.24 | 1.80 | 96 | 1009.9 |
| 20260506162003 | 6 | 330 | 6.4 | 12.9 | 0.00 | 2.24 | 1.80 | 96 | 1010.0 |
| 20260506161503 | 6 | 18 | 8.0 | 11.3 | 0.00 | 2.24 | 1.80 | 96 | 1009.9 |
| 20260506161003 | 6 | 342 | 3.2 | 8.0 | 0.03 | 2.24 | 1.80 | 96 | 1010.0 |
| 20260506160503 | 6 | 358 | 4.8 | 11.3 | 0.03 | 2.24 | 1.80 | 96 | 1010.1 |
| 20260506160003 | 6 | 349 | 3.2 | 11.3 | 0.03 | 2.24 | 1.80 | 96 | 1010.1 |
| 20260506155503 | 6 | 17 | 8.0 | 14.5 | 0.03 | 2.24 | 1.80 | 96 | 1010.1 |
| 20260506155003 | 6 | 16 | 4.8 | 9.7 | 0.03 | 2.24 | 1.80 | 96 | 1010.1 |
| 20260506154003 | 6 | 352 | 3.2 | 11.3 | 0.03 | 2.24 | 1.80 | 96 | 1009.9 |
| 20260506153503 | 6 | 337 | 4.8 | 11.3 | 0.03 | 2.24 | 1.80 | 96 | 1009.8 |
| 20260506153004 | 6 | 350 | 4.8 | 11.3 | 0.03 | 2.24 | 1.80 | 96 | 1009.9 |
| 20260506152503 | 6 | 12 | 3.2 | 4.8 | 0.03 | 2.24 | 1.80 | 96 | 1010.0 |
| 20260506152003 | 6 | 8 | 4.8 | 14.5 | 0.03 | 2.24 | 1.80 | 96 | 1009.9 |
| 20260506151503 | 6 | 352 | 3.2 | 9.7 | 0.03 | 2.24 | 1.80 | 96 | 1009.9 |
| 20260506150504 | 6 | 341 | 6.4 | 11.3 | 0.00 | 2.21 | 1.78 | 96 | 1009.8 |
| 20260506150003 | 6 | 27 | 3.2 | 9.7 | 0.00 | 2.21 | 1.78 | 96 | 1009.8 |
| 20260506145504 | 6 | 357 | 8.0 | 11.3 | 0.00 | 2.21 | 1.78 | 95 | 1009.8 |
| 20260506145003 | 6 | 34 | 1.6 | 4.8 | 0.00 | 2.21 | 1.78 | 96 | 1009.6 |
| 20260506143504 | 6 | 53 | 4.8 | 9.7 | 0.03 | 2.21 | 1.78 | 96 | 1009.5 |
| 20260506142504 | 6 | 55 | 6.4 | 12.9 | 0.03 | 2.21 | 1.78 | 96 | 1009.3 |
| 20260506142003 | 6 | 29 | 4.8 | 11.3 | 0.03 | 2.21 | 1.78 | 96 | 1009.3 |
| 20260506141003 | 6 | 56 | 8.0 | 12.9 | 0.03 | 2.21 | 1.78 | 95 | 1009.4 |
| 20260506140004 | 6 | 44 | 3.2 | 9.7 | 0.03 | 2.21 | 1.78 | 96 | 1009.5 |
| 20260506135503 | 6 | 68 | 4.8 | 12.9 | 0.05 | 2.21 | 1.78 | 96 | 1009.4 |
| 20260506135004 | 6 | 41 | 8.0 | 14.5 | 0.05 | 2.21 | 1.78 | 96 | 1009.5 |
| 20260506134504 | 6 | 58 | 4.8 | 11.3 | 0.03 | 2.18 | 1.75 | 96 | 1009.6 |
| 20260506134004 | 6 | 42 | 3.2 | 9.7 | 0.03 | 2.18 | 1.75 | 96 | 1009.5 |
| 20260506133504 | 6 | 46 | 4.8 | 16.1 | 0.03 | 2.18 | 1.75 | 96 | 1009.4 |
| 20260506133003 | 6 | 33 | 3.2 | 9.7 | 0.03 | 2.18 | 1.75 | 96 | 1009.3 |
| 20260506132504 | 6 | 35 | 3.2 | 9.7 | 0.03 | 2.18 | 1.75 | 96 | 1009.2 |
| 20260506131504 | 6 | 67 | 8.0 | 12.9 | 0.05 | 2.18 | 1.75 | 96 | 1009.2 |
| 20260506131004 | 6 | 70 | 4.8 | 12.9 | 0.05 | 2.18 | 1.75 | 96 | 1009.2 |
| 20260506130503 | 6 | 66 | 4.8 | 8.0 | 0.05 | 2.18 | 1.75 | 97 | 1009.2 |
| 20260506130005 | 6 | 75 | 4.8 | 9.7 | 0.08 | 2.18 | 1.75 | 97 | 1009.2 |
| 20260506125001 | 6 | 74 | 6.4 | 11.3 | 0.05 | 2.16 | 1.73 | 97 | 1009.3 |
| 20260506124502 | 5 | 66 | 4.8 | 9.7 | 0.08 | 2.16 | 1.73 | 97 | 1009.4 |
| 20260506124002 | 5 | 63 | 4.8 | 9.7 | 0.08 | 2.16 | 1.73 | 97 | 1009.3 |
| 20260506123502 | 5 | 64 | 4.8 | 11.3 | 0.08 | 2.16 | 1.73 | 97 | 1009.2 |
| 20260506123001 | 5 | 56 | 4.8 | 11.3 | 0.08 | 2.16 | 1.73 | 97 | 1009.2 |
| 20260506122501 | 5 | 72 | 4.8 | 9.7 | 0.08 | 2.16 | 1.73 | 97 | 1009.2 |
| 20260506122002 | 5 | 71 | 3.2 | 8.0 | 0.08 | 2.16 | 1.73 | 97 | 1009.3 |
| 20260506121002 | 5 | 68 | 6.4 | 8.0 | 0.08 | 2.13 | 1.70 | 97 | 1009.4 |
| 20260506120502 | 5 | 70 | 6.4 | 11.3 | 0.08 | 2.13 | 1.70 | 97 | 1009.4 |
| 20260506120002 | 5 | 65 | 4.8 | 8.0 | 0.08 | 2.11 | 1.68 | 97 | 1009.5 |
| 20260506115503 | 5 | 58 | 6.4 | 14.5 | 0.08 | 2.11 | 1.68 | 97 | 1009.4 |
| 20260506114501 | 5 | 69 | 8.0 | 11.3 | 0.08 | 2.08 | 1.65 | 97 | 1009.3 |
| 20260506113502 | 5 | 72 | 6.4 | 16.1 | 0.13 | 2.08 | 1.65 | 97 | 1009.2 |
| 20260506113001 | 5 | 61 | 8.0 | 12.9 | 0.15 | 2.08 | 1.65 | 97 | 1009.1 |
| 20260506112502 | 5 | 75 | 11.3 | 19.3 | 0.15 | 2.08 | 1.65 | 97 | 1008.8 |
| 20260506112002 | 6 | 61 | 9.7 | 16.1 | 0.18 | 2.08 | 1.65 | 97 | 1008.7 |
| 20260506111502 | 6 | 88 | 9.7 | 19.3 | 0.20 | 2.08 | 1.65 | 98 | 1009.0 |
| 20260506111002 | 6 | 66 | 8.0 | 16.1 | 0.20 | 2.06 | 1.63 | 98 | 1009.1 |
| 20260506110502 | 6 | 97 | 4.8 | 9.7 | 0.23 | 2.06 | 1.63 | 98 | 1009.0 |
| 20260506110002 | 6 | 65 | 4.8 | 9.7 | 0.20 | 2.03 | 1.60 | 98 | 1009.1 |
| 20260506105502 | 6 | 73 | 6.4 | 9.7 | 0.23 | 2.03 | 1.60 | 98 | 1009.2 |
| 20260506105001 | 6 | 67 | 4.8 | 12.9 | 0.23 | 2.01 | 1.57 | 98 | 1009.1 |
| 20260506104001 | 6 | 54 | 4.8 | 12.9 | 0.23 | 1.98 | 1.55 | 98 | 1009.2 |
| 20260506103502 | 6 | 66 | 4.8 | 8.0 | 0.23 | 1.96 | 1.52 | 98 | 1009.5 |
| 20260506103002 | 6 | 74 | 1.6 | 3.2 | 0.20 | 1.93 | 1.50 | 98 | 1009.6 |
| 20260506102002 | 6 | 41 | 3.2 | 8.0 | 0.18 | 1.91 | 1.47 | 98 | 1009.3 |
| 20260506101502 | 6 | 51 | 3.2 | 4.8 | 0.15 | 1.88 | 1.45 | 98 | 1009.3 |
| 20260506101001 | 6 | 19 | 3.2 | 8.0 | 0.15 | 1.85 | 1.42 | 98 | 1009.4 |
| 20260506100001 | 6 | 44 | 3.2 | 8.0 | 0.13 | 1.83 | 1.40 | 98 | 1009.4 |
| 20260506095002 | 6 | 57 | 1.6 | 9.7 | 0.10 | 1.78 | 1.35 | 98 | 1009.5 |
| 20260506094501 | 6 | 47 | 1.6 | 11.3 | 0.08 | 1.75 | 1.32 | 98 | 1009.4 |
| 20260506094002 | 6 | 40 | 4.8 | 11.3 | 0.10 | 1.75 | 1.32 | 98 | 1009.2 |
| 20260506093502 | 6 | 77 | 1.6 | 8.0 | 0.10 | 1.73 | 1.30 | 98 | 1009.2 |
| 20260506093002 | 6 | 9 | 3.2 | 4.8 | 0.10 | 1.73 | 1.30 | 98 | 1009.1 |
| 20260506092501 | 6 | 46 | 3.2 | 12.9 | 0.13 | 1.73 | 1.30 | 98 | 1009.0 |
| 20260506092002 | 6 | 43 | 4.8 | 8.0 | 0.15 | 1.73 | 1.30 | 98 | 1008.8 |
| 20260506091502 | 6 | 43 | 8.0 | 14.5 | 0.15 | 1.73 | 1.30 | 98 | 1008.7 |
| 20260506091001 | 6 | 61 | 4.8 | 8.0 | 0.15 | 1.70 | 1.27 | 98 | 1008.7 |
| 20260506090502 | 6 | 57 | 4.8 | 8.0 | 0.18 | 1.70 | 1.27 | 98 | 1009.0 |
| 20260506085502 | 6 | 64 | 3.2 | 4.8 | 0.20 | 1.70 | 1.27 | 98 | 1009.3 |
| 20260506085002 | 6 | 64 | 3.2 | 4.8 | 0.20 | 1.68 | 1.24 | 98 | 1009.3 |
| 20260506084502 | 6 | 42 | 3.2 | 8.0 | 0.23 | 1.68 | 1.24 | 98 | 1009.4 |
| 20260506083502 | 6 | 70 | 4.8 | 9.7 | 0.28 | 1.63 | 1.19 | 98 | 1009.2 |
| 20260506082002 | 6 | 73 | 1.6 | 4.8 | 0.33 | 1.57 | 1.14 | 98 | 1009.6 |
| 20260506081502 | 6 | 76 | 3.2 | 8.0 | 0.33 | 1.57 | 1.14 | 97 | 1009.5 |
| 20260506081002 | 6 | 68 | 3.2 | 4.8 | 0.33 | 1.55 | 1.12 | 97 | 1009.5 |
| 20260506080502 | 6 | 102 | 3.2 | 9.7 | 0.33 | 1.52 | 1.09 | 97 | 1009.6 |
| 20260506073502 | 6 | 75 | 4.8 | 11.3 | 0.28 | 1.35 | 0.91 | 98 | 1009.5 |
| 20260506073003 | 6 | 57 | 8.0 | 11.3 | 0.28 | 1.32 | 0.89 | 98 | 1009.2 |
| 20260506072502 | 6 | 72 | 6.4 | 12.9 | 0.30 | 1.30 | 0.86 | 98 | 1009.0 |
| 20260506072003 | 7 | 73 | 4.8 | 9.7 | 0.30 | 1.24 | 0.81 | 97 | 1009.1 |
| 20260506071502 | 7 | 53 | 3.2 | 9.7 | 0.33 | 1.24 | 0.81 | 97 | 1009.1 |
| 20260506071002 | 7 | 60 | 6.4 | 11.3 | 0.36 | 1.22 | 0.79 | 97 | 1009.2 |
| 20260506070502 | 7 | 49 | 4.8 | 9.7 | 0.36 | 1.19 | 0.76 | 97 | 1009.1 |
| 20260506062502 | 7 | 42 | 4.8 | 12.9 | 0.28 | 0.99 | 0.56 | 97 | 1009.8 |
| 20260506062002 | 7 | 355 | 3.2 | 9.7 | 0.25 | 0.94 | 0.51 | 97 | 1010.0 |
| 20260506061502 | 7 | 19 | 1.6 | 8.0 | 0.25 | 0.91 | 0.48 | 97 | 1009.8 |
| 20260506061002 | 7 | 43 | 4.8 | 9.7 | 0.23 | 0.86 | 0.43 | 97 | 1009.6 |
| 20260506060502 | 7 | 67 | 4.8 | 9.7 | 0.23 | 0.84 | 0.41 | 97 | 1009.8 |